El Tizu, Mexico

8:35 AM CST on February 23, 2017 (GMT -0600)
Ponciano Arriaga International

Weather History for MMSP - February, 2013

Change the Weather History Date:

Friday, February 15, 2013

  Actual Average Record
Temperature  
Mean Temperature 57 °F -  
Max Temperature 77 °F 72 °F 82 °F (2000)
Min Temperature 37 °F 40 °F 26 °F (1999)
Degree Days  
Heating Degree Days 8    
Growing Degree Days 7 (Base 50)    
Moisture  
Dew Point 38 °F    
Average Humidity 65    
Maximum Humidity 100    
Minimum Humidity 10    
Precipitation  
Precipitation 0.00 in - - ()
Sea Level Pressure  
Sea Level Pressure 30.08 in    
Wind  
Wind Speed 2 mph ()    
Max Wind Speed 12 mph    
Max Gust Speed -    
Visibility 8.6 miles    
Events Fog    
Averages and records for this station are not official NWS values.
T = Trace of Precipitation, MM = Missing Value Source: Averaged Metar Reports

Daily Weather History Graph

Daily Weather History Graph

Search for Another Location

Airport or City:

Trip Planner

Search our weather history database for the weather conditions in past years. The results will help you decide how hot, cold, wet, or windy it might be!

Date:

Astronomy

Feb. 15, 2013 Rise Set
Actual Time 7:14 AM CST 6:40 PM CST
Civil Twilight 6:52 AM CST 7:03 PM CST
Nautical Twilight 6:25 AM CST 7:30 PM CST
Astronomical Twilight 5:59 AM CST 7:56 PM CST
Moon 10:39 AM CST (2/15) 11:53 PM CST (2/15)
Length of Visible Light 12h 11m
Length of Day
11h 26m
Waxing Crescent, 30% of the Moon is Illuminated
Feb 15
Waxing Crescent
Feb 17
First Quarter
Feb 25
Full
Mar 4
Last Quarter
Mar 11
New

Hourly Weather History & Observations

Time (CST) Temp. Windchill Dew Point Humidity Pressure Visibility Wind Dir Wind Speed Gust Speed Precip Events Conditions
12:51 AM 44.6 °F 40.7 °F 39.2 °F 81% 30.16 in 10.0 mi ENE 6.9 mph - N/A   Clear
1:46 AM 42.8 °F - 41.0 °F 93% 30.16 in 8.0 mi Calm Calm - N/A   Clear
2:49 AM 42.8 °F - 41.0 °F 93% 29.86 in 8.0 mi Calm Calm - N/A   Clear
3:46 AM 39.2 °F - 37.4 °F 93% 30.16 in 7.0 mi Calm Calm - N/A   Clear
4:47 AM 41.0 °F - 41.0 °F 100% 30.16 in 0.5 mi Calm Calm - N/A Fog Fog
5:45 AM 43 °F - 42 °F 95% 30.06 in 1 mi Calm Calm - - Fog Heavy Fog
5:46 AM 42.8 °F - 42.8 °F 100% 29.88 in 0.1 mi Calm Calm - N/A Fog Fog
6:44 AM 42.8 °F - 42.8 °F 100% 30.19 in 0.0 mi Calm Calm - N/A Fog Fog
7:44 AM 39.2 °F 35.9 °F 37.4 °F 93% 30.22 in 0.1 mi WNW 4.6 mph - N/A Fog Fog
8:42 AM 39.2 °F - 39.2 °F 100% 30.06 in 0.2 mi Calm Calm - N/A Fog Fog
8:45 AM 44 °F - 43 °F 93% 30.17 in 6 mi SW 2.2 mph - -   Haze
9:42 AM 42.8 °F - 41.0 °F 93% 30.24 in 0.5 mi Calm Calm - N/A Fog Fog
10:11 AM 44.6 °F - 42.8 °F 93% 30.25 in 3.0 mi Calm Calm - N/A   Scattered Clouds
10:43 AM 50.0 °F - 44.6 °F 82% 30.24 in 13.0 mi Calm Calm - N/A   Partly Cloudy
11:42 AM 60.8 °F - 37.4 °F 42% 29.93 in 15.0 mi Calm Calm - N/A   Partly Cloudy
11:45 AM 63 °F - 47 °F 46% 30.14 in 7 mi ESE 2.2 mph - -   Haze
12:41 PM 69.8 °F - 24.8 °F 18% 30.17 in 15.0 mi Calm Calm - N/A   Scattered Clouds
1:40 PM 73.4 °F - 23.0 °F 15% 30.13 in 15.0 mi Calm Calm - N/A   Partly Cloudy
2:43 PM 73.4 °F - 23.0 °F 15% 29.78 in 15.0 mi South 6.9 mph - N/A   Partly Cloudy
2:50 PM 74 °F - 53 °F 37% 29.94 in 12 mi NW 4.5 mph - -   Mostly Cloudy
3:50 PM 73.4 °F - 23.0 °F 15% 30.09 in 15.0 mi North 4.6 mph - N/A   Overcast
4:50 PM 73.4 °F - 14.0 °F 10% 30.09 in 15.0 mi NE 9.2 mph - N/A   Overcast
5:44 PM 69.8 °F - 28.4 °F 21% 29.83 in 15.0 mi East 11.5 mph - N/A   Overcast
5:50 PM 69 °F - 46 °F 32% 29.86 in 11 mi East 2.2 mph - -   Haze
6:48 PM 64.4 °F - 33.8 °F 32% 30.13 in 12.0 mi Calm Calm - N/A   Overcast
7:49 PM 57.2 °F - 37.4 °F 48% 30.16 in 12.0 mi Calm Calm - N/A   Overcast
8:44 PM 55.4 °F - 39.2 °F 54% 30.01 in 12.0 mi ENE 5.8 mph - N/A   Overcast
9:42 PM 53.6 °F - 48.2 °F 82% 30.22 in 12.0 mi Calm Calm - N/A   Mostly Cloudy
10:54 PM 51.8 °F - 46.4 °F 82% 30.25 in 10.0 mi Calm Calm - N/A   Clear
11:43 PM 51.8 °F - 46.4 °F 82% 29.96 in 10.0 mi Calm Calm - N/A   Clear
11:50 PM 51 °F - 45 °F 73% 29.90 in 5 mi North 2.2 mph - -